Terminal Aerodrome Forecast
Issued by NWS Lake Charles, LA

Home | Current Version | Previous Version | Text Only | Print | Product List | Glossary On
Versions: 1 2 3 4 5 6 7 8 9 10 11 12 13 14 15 16 17 18 19 20 21
000
FTUS44 KLCH 282323
TAFAEX
TAF
KAEX 282323Z 2900/2924 VRB05KT P6SM VCTS SCT050CB
     FM290100 VRB03KT P6SM FEW025 SCT250
      TEMPO 2911/2915 4SM BR
     FM291500 18006KT P6SM BKN035
     FM291800 17008KT P6SM VCTS BKN050CB=

USA.gov is the U.S. government's official web portal to all federal, state and local government web resources and services.